Regional Weather Roundup
Issued by NWS Cleveland, OH

Home | Current Version | Previous Version | Text Only | Print | Product List | Glossary Off
Versions: 1 2 3 4 5 6 7 8 9 10 11 12 13 14 15 16 17 18 19 20 21 22 23 24 25 26 27 28 29 30 31 32 33 34 35 36 37 38 39 40 41 42 43 44 45 46 47 48 49 50

000
ASUS41 KCLE 262210
RWRCLE
OHIO REGIONAL WEATHER ROUNDUP
NATIONAL WEATHER SERVICE CLEVELAND, OH
600 PM EDT WED JUL 26 2017

NOTE: "FAIR" INDICATES FEW OR NO CLOUDS BELOW 12,000 FEET WITH NO
SIGNIFICANT WEATHER AND/OR OBSTRUCTIONS TO VISIBILITY.

OHZ001>008-015>018-024>027-034-035-043-044-262300-
   NORTHWEST OHIO

CITY           SKY/WX    TMP DP  RH WIND       PRES   REMARKS
DEFIANCE       FAIR      81  61  50 W5        30.05F
FINDLAY        FAIR      81  63  54 S8        30.05F
TOLEDO EXPRESS FAIR      79  64  60 SW3       30.05S
TOLEDO EXEC    FAIR      81  63  54 VRB6      30.06S
LIMA           FAIR      80  64  58 S5        30.06F
$$

OHZ009>014-019>023-028>033-038-089-262300-
   NORTHEAST OHIO

CITY           SKY/WX    TMP DP  RH WIND       PRES   REMARKS
CLE-HOPKINS    PTSUNNY   79  65  62 N9        30.08S
CLE-LAKEFRONT  FAIR      77  65  66 N8        30.06S
CUY CO. ARPT   MOSUNNY   77  64  65 NE9       30.08
LORAIN-ELYRIA  FAIR      79  59  50 W6        30.07F
ASHTABULA      FAIR      77  63  61 NW5       30.10R
AKRON-CANTON   PTSUNNY   80  60  50 SW8       30.07F
WOOSTER        FAIR      77  64  64 W5        30.08F
MANSFIELD      FAIR      79  62  56 SW7       30.09S
YOUNGSTOWN     PTSUNNY   78  61  55 S3        30.08F
$$

OHZ042-051>053-060>062-070>072-077>081-262300-
  SOUTHWEST OHIO

CITY           SKY/WX    TMP DP  RH WIND       PRES   REMARKS
CINC-COVINGTON PTSUNNY   84  68  58 W6        30.05F
CINC-LUNKEN    FAIR      84  70  62 S6        30.03F
HAMILTON       FAIR      84  67  56 MISG      30.05F
DAYTON         PTSUNNY   82  61  48 SW7       30.07F
WRIGHT-PAT AFB PTSUNNY   81  57  43 SE9       30.05F
DAYTON GENERAL FAIR      82  63  52 S6        30.05F
WILMINGTON     FAIR      80  64  58 S6        30.06F
$$

OHZ036-037-039>041-045>050-054>059-063>069-073>076-082>088-262300-
  CENTRAL AND SOUTHEAST OHIO

CITY           SKY/WX    TMP DP  RH WIND       PRES   REMARKS
COLUMBUS       CLOUDY    80  62  54 S6        30.06F
OSU AIRPORT    FAIR      80  64  58 S6        30.07S
BOLTON FIELD   SUNNY     79  64  61 S3        30.07F
RICKENBACK AFB FAIR      79  62  55 CALM      30.05F
NEWARK         FAIR      81  62  52 VRB3      30.06F
MARION         FAIR      78  61  55 S7        30.07S
LANCASTER      FAIR      79  64  60 SW6       30.07F
ZANESVILLE     FAIR      80  62  54 S5        30.07F
NEW PHILLY     NOT AVBL
$$




USA.gov is the U.S. government's official web portal to all federal, state and local government web resources and services.